Reading, PA

11:26 PM EDT on September 18, 2019 (GMT -0400)
Reading Regional-Spaatz

Weather History for KRDG - July, 2019

Change the Weather History Date:

Friday, July 19, 2019

  Actual Average Record
Temperature  
Mean Temperature 84 °F 75 °F  
Max Temperature 94 °F 85 °F 100 °F (1980)
Min Temperature 74 °F 65 °F 55 °F (1924)
Degree Days  
Heating Degree Days 0 0  
Month to date heating degree days 0 0  
Since 1 June heating degree days 16 24  
Since 1 July heating degree days 0 0  
Cooling Degree Days 19 10  
Month to date cooling degree days 258 187  
Year to date cooling degree days 568 436  
Since 1 June cooling degree days 463 376  
Growing Degree Days 34 (Base 50)    
Moisture  
Dew Point 77 °F    
Average Humidity 81    
Maximum Humidity 100    
Minimum Humidity 62    
Precipitation  
Precipitation 0.00 in 0.16 in 1.43 in (1951)
Month to date precipitation 6.05 2.76  
Year to date precipitation 37.41 23.56  
Sea Level Pressure  
Sea Level Pressure 29.90 in    
Wind  
Wind Speed 5 mph (WSW)    
Max Wind Speed 15 mph    
Max Gust Speed 20 mph    
Visibility 9 miles    
Events      
T = Trace of Precipitation, MM = Missing Value Source: NWS Daily Summary

Daily Weather History Graph

Daily Weather History Graph

Search for Another Location

Airport or City:

Astronomy

Jul. 19, 2019 Rise Set
Actual Time 5:49 AM EDT 8:30 PM EDT
Civil Twilight 5:17 AM EDT 9:02 PM EDT
Nautical Twilight 4:37 AM EDT 9:41 PM EDT
Astronomical Twilight 3:52 AM EDT 10:26 PM EDT
Moon 10:26 PM EDT 8:14 AM EDT
Length of Visible Light 15h 44m
Length of Day
14h 40m
Waning Gibbous, 93% of the Moon is Illuminated
Jul 19
Waning Gibbous
Jul 24
Last Quarter
Jul 31
New
Aug 7
First Quarter
Aug 15
Full

Hourly Weather History & Observations

Time (EDT) Temp. Heat Index Dew Point Humidity Pressure Visibility Wind Dir Wind Speed Gust Speed Precip Events Conditions
12:54 AM 75.0 °F - 75.0 °F 100% 29.90 in 10.0 mi Calm Calm - N/A   Clear
1:18 AM 75.0 °F - 75.0 °F 100% 29.90 in 10.0 mi WNW 3.5 mph - N/A   Mostly Cloudy
1:54 AM 75.0 °F - 75.0 °F 100% 29.90 in 10.0 mi Calm Calm - N/A   Overcast
2:54 AM 75.9 °F - 75.9 °F 100% 29.91 in 10.0 mi NNW 3.5 mph - N/A   Overcast
3:28 AM 75.9 °F - 75.9 °F 100% 29.90 in 10.0 mi Calm Calm - N/A   Overcast
3:38 AM 75.9 °F - 75.9 °F 100% 29.90 in 10.0 mi Calm Calm - N/A   Overcast
3:54 AM 77.0 °F - 77.0 °F 100% 29.91 in 10.0 mi NNW 3.5 mph - N/A   Overcast
4:54 AM 75.9 °F - 75.9 °F 100% 29.90 in 10.0 mi Calm Calm - N/A   Overcast
5:54 AM 75.9 °F - 75.9 °F 100% 29.91 in 10.0 mi Calm Calm - N/A   Overcast
6:25 AM 75.9 °F - 75.9 °F 100% 29.91 in 3.0 mi Calm Calm - N/A   Haze
6:32 AM 75.9 °F - 75.9 °F 100% 29.91 in 3.0 mi Calm Calm - N/A   Haze
6:54 AM 75.9 °F - 75.9 °F 100% 29.93 in 3.0 mi Calm Calm - N/A   Haze
7:01 AM 77.0 °F - 77.0 °F 100% 29.92 in 2.5 mi Calm Calm - N/A   Mostly Cloudy
7:54 AM 79.0 °F - 77.0 °F 94% 29.93 in 2.5 mi WSW 3.5 mph - N/A   Mostly Cloudy
8:01 AM 78.1 °F - 77.0 °F 96% 29.92 in 4.0 mi SW 3.5 mph - N/A   Mostly Cloudy
8:54 AM 81.0 °F 87.9 °F 77.0 °F 88% 29.94 in 6.0 mi SW 3.5 mph - N/A   Haze
9:28 AM 82.0 °F 90.2 °F 77.0 °F 85% 29.93 in 10.0 mi WSW 3.5 mph - N/A   Scattered Clouds
9:54 AM 84.0 °F 93.7 °F 77.0 °F 79% 29.93 in 10.0 mi West 5.8 mph - N/A   Partly Cloudy
10:54 AM 87.1 °F 98.8 °F 77.0 °F 72% 29.93 in 10.0 mi Variable 6.9 mph - N/A   Partly Cloudy
11:54 AM 89.1 °F 103.2 °F 78.1 °F 70% 29.92 in 10.0 mi West 6.9 mph - N/A   Partly Cloudy
12:54 PM 91.0 °F 106.2 °F 78.1 °F 66% 29.91 in 10.0 mi SW 9.2 mph - N/A   Partly Cloudy
1:54 PM 91.0 °F 107.6 °F 79.0 °F 68% 29.90 in 10.0 mi West 9.2 mph - N/A   Scattered Clouds
2:54 PM 93.0 °F 109.7 °F 79.0 °F 63% 29.89 in 10.0 mi WSW 11.5 mph - N/A   Scattered Clouds
3:54 PM 93.9 °F 109.9 °F 78.1 °F 60% 29.88 in 10.0 mi West 11.5 mph - N/A   Scattered Clouds
4:54 PM 93.9 °F 109.9 °F 78.1 °F 60% 29.87 in 10.0 mi WSW 10.4 mph - N/A   Clear
5:54 PM 93.0 °F 108.9 °F 78.1 °F 62% 29.86 in 10.0 mi WSW 12.7 mph - N/A   Partly Cloudy
6:54 PM 91.9 °F 107.3 °F 78.1 °F 64% 29.85 in 10.0 mi WSW 8.1 mph - N/A   Clear
7:54 PM 90.0 °F 104.5 °F 78.1 °F 68% 29.88 in 10.0 mi WSW 5.8 mph - N/A   Clear
8:54 PM 88.0 °F 101.3 °F 78.1 °F 72% 29.88 in 10.0 mi West 3.5 mph - N/A   Clear
9:54 PM 86.0 °F 98.3 °F 78.1 °F 77% 29.88 in 10.0 mi WSW 5.8 mph - N/A   Clear
10:54 PM 82.0 °F 91.0 °F 78.1 °F 88% 29.89 in 10.0 mi Calm Calm - N/A   Clear
11:54 PM 82.0 °F 90.2 °F 77.0 °F 85% 29.87 in 10.0 mi Calm Calm - N/A   Clear